Skip Page Navigation
NASA JPL Caltech
NASA Logo - Jet Propulsion Laboratory + View the NASA Portal
+ Center for Near-Earth Object Studies
JPL Home Earth Solar System Stars & Galaxies Technology
JPL Solar System Dynamics
BODIES ORBITS EPHEMERIDES TOOLS PHYSICAL DATA DISCOVERY FAQ SITE MAP
JPL Small-Body Database Browser
Search: [ help ]  
134037 (2004 XP3)
Classification: Main-belt Asteroid          SPK-ID: 2134037
Ephemeris | Orbit Diagram | Orbital Elements | Mission Design | Physical Parameters | Discovery Circumstances | Close-Approach Data ]

[ show orbit diagram ]
Orbital Elements at Epoch 2459000.5 (2020-May-31.0) TDB
Reference: JPL 21 (heliocentric ecliptic J2000)
 Element Value Uncertainty (1-sigma)   Units 
e .1799583550877611 4.5184e-08  
a 2.693620162458867 1.7281e-08 au
q 2.208880708791542 1.246e-07 au
i 9.840625574944012 6.8725e-06 deg
node 52.52712317241199 2.5888e-05 deg
peri 48.37403286946676 3.2409e-05 deg
M 171.9378905733241 1.8869e-05 deg
tp 2458229.291066512055
(2018-Apr-20.79106651)
8.213e-05 TDB
period 1614.741318099751
4.42
1.5539e-05
4.254e-08
d
yr
n .2229459269820709 2.1455e-09 deg/d
Q 3.178359616126193 2.0391e-08 au
  Orbit Determination Parameters
   # obs. used (total)      497  
   data-arc span      8515 days (23.31 yr)  
   first obs. used      1996-01-17  
   last obs. used      2019-05-11  
   planetary ephem.      DE431  
   SB-pert. ephem.      SB431-N16  
   condition code      0  
   norm. resid. RMS      .56722  
   source      ORB  
   producer      Otto Matic  
   solution date      2019-May-30 07:11:00  

Additional Information
 Earth MOID = 1.23915 au 
 Jupiter MOID = 2.06863 au 
 T_jup = 3.326 
[ show covariance matrix ]

Ephemeris | Orbit Diagram | Orbital Elements | Mission Design | Physical Parameters | Discovery Circumstances | Close-Approach Data ]

Physical Parameter Table
Parameter Symbol Value Units Sigma Reference Notes
absolute magnitude H 15.7   n/a MPO385582  

134037 (2004 XP3)          Discovered 2004-Dec-02 by LINEAR at Socorro
Reference: 20060711/Numbers.arcLast Updated: 2006-07-17

[ show close-approach data ]
Alternate Designations
 2004 XP3 = 1996 BG13 
Ephemeris | Orbit Diagram | Orbital Elements | Mission Design | Physical Parameters | Discovery Circumstances | Close-Approach Data ]
ABOUT SSD CREDITS/AWARDS PRIVACY/COPYRIGHT GLOSSARY LINKS
FirstGov 2020-Oct-26 17:15 UT
(server date/time)  
NASA Home Page
Site Manager:   Ryan S. Park
Webmaster  Alan B. Chamberlin